Location: Chilton Park
(37.7711°N, 100.0276°W)
Time: 14:43:35
(UTC+00:00)

Cosmos 2227 Rocket - Pass Details

Date: 03 July 2022
Orbit: 840 x 844 km, 71.0° (Epoch: 18 August)

Event Time Altitude Azimuth Distance (km) Brightness Sun altitude
Exits shadow 08:42:47 29° 148° (SSE) 1,503 3.2 -23.2°
Maximum altitude 08:44:51 39° 105° (ESE) 1,244 3.1 -23.0°
Drops below altitude 10° 08:50:04 10° 38° (NE) 2,468 5.7 -22.5°
Sets 08:52:39 0° 31° (NNE) 3,407 6.9 -22.2°
